Mankato, MN

5:43 AM CST on November 14, 2019 (GMT -0600)
Mankato Regional

Weather History for KMKT - May, 2019

Change the Weather History Date:

Sunday, May 19, 2019

  Actual Average Record
Temperature  
Mean Temperature 42 °F -  
Max Temperature 46 °F 64 °F 89 °F (2012)
Min Temperature 39 °F 47 °F 33 °F (2015)
Degree Days  
Heating Degree Days 22    
Moisture  
Dew Point 40 °F    
Average Humidity 89    
Maximum Humidity 100    
Minimum Humidity 76    
Precipitation  
Precipitation 0.55 in - - ()
Sea Level Pressure  
Sea Level Pressure 29.77 in    
Wind  
Wind Speed 17 mph (NNE)    
Max Wind Speed 25 mph    
Max Gust Speed 30 mph    
Visibility 10 miles    
Events Rain    
Averages and records for this station are not official NWS values.
T = Trace of Precipitation, MM = Missing Value Source: NWS Daily Summary

Daily Weather History Graph

Daily Weather History Graph

Search for Another Location

Airport or City:

Astronomy

May. 19, 2019 Rise Set
Actual Time 5:45 AM CDT 8:39 PM CDT
Civil Twilight 5:11 AM CDT 9:14 PM CDT
Nautical Twilight 4:27 AM CDT 9:57 PM CDT
Astronomical Twilight 3:36 AM CDT 10:48 PM CDT
Moon 9:41 PM CDT (5/19) 6:32 AM CDT (5/19)
Length of Visible Light 16h 03m
Length of Day
14h 54m
Full, 99% of the Moon is Illuminated
May 19
Full
May 26
Last Quarter
Jun 3
New
Jun 10
First Quarter
Jun 17
Full

Hourly Weather History & Observations

Time (CDT) Temp. Windchill Dew Point Humidity Pressure Visibility Wind Dir Wind Speed Gust Speed Precip Events Conditions
12:56 AM 46.9 °F - 45.0 °F 93% 29.68 in 10.0 mi ENE 16.1 mph 24.2 mph 0.01 in Rain Light Rain
1:56 AM 46.0 °F 38.8 °F 45.0 °F 96% 29.63 in 10.0 mi ENE 18.4 mph 24.2 mph 0.01 in Rain Light Rain
2:56 AM 46.0 °F 38.3 °F 44.1 °F 93% 29.63 in 10.0 mi ENE 20.7 mph 28.8 mph 0.01 in Rain Light Rain
3:56 AM 46.0 °F 39.0 °F 44.1 °F 93% 29.64 in 10.0 mi ENE 17.3 mph 27.6 mph 0.04 in Rain Light Rain
4:56 AM 45.0 °F 39.3 °F 44.1 °F 97% 29.66 in 10.0 mi North 11.5 mph - 0.09 in Rain Rain
5:23 AM 44.6 °F 39.2 °F 44.6 °F 100% 29.64 in 10.0 mi North 10.4 mph - 0.04 in Rain Light Rain
5:56 AM 45.0 °F 38.5 °F 44.1 °F 97% 29.64 in 9.0 mi NNE 13.8 mph - 0.08 in Rain Rain
6:23 AM 44.6 °F 36.6 °F 42.8 °F 93% 29.62 in 9.0 mi NNE 19.6 mph 25.3 mph 0.03 in Rain Rain
6:56 AM 44.1 °F 37.4 °F 43.0 °F 96% 29.65 in 10.0 mi North 13.8 mph - 0.06 in Rain Rain
7:56 AM 44.1 °F 37.1 °F 43.0 °F 96% 29.66 in 10.0 mi NNE 15.0 mph - 0.17 in Rain Rain
8:56 AM 44.1 °F 38.6 °F 43.0 °F 96% 29.69 in 10.0 mi North 10.4 mph - 0.06 in Rain Light Rain
9:32 AM 44.6 °F 37.2 °F 42.8 °F 93% 29.67 in 10.0 mi North 17.3 mph - 0.02 in Rain Light Rain
9:39 AM 44.6 °F 37.4 °F 42.8 °F 93% 29.67 in 10.0 mi North 16.1 mph - 0.02 in Rain Light Rain
9:56 AM 45.0 °F 37.9 °F 43.0 °F 93% 29.70 in 10.0 mi North 16.1 mph - 0.02 in Rain Light Rain
10:56 AM 45.0 °F 37.4 °F 42.1 °F 90% 29.71 in 10.0 mi North 18.4 mph - 0.00 in Rain Light Rain
11:41 AM 44.6 °F 36.9 °F 42.8 °F 93% 29.71 in 10.0 mi North 18.4 mph 27.6 mph 0.00 in Rain Light Rain
11:56 AM 45.0 °F 37.6 °F 42.1 °F 90% 29.74 in 10.0 mi NNE 17.3 mph - 0.00 in Rain Light Rain
12:24 PM 44.6 °F 35.9 °F 41.0 °F 87% 29.72 in 10.0 mi North 23.0 mph 28.8 mph 0.00 in Rain Light Rain
12:56 PM 46.9 °F - 42.1 °F 83% 29.73 in 10.0 mi NNE 23.0 mph 26.5 mph 0.00 in   Overcast
1:43 PM 44.6 °F 36.1 °F 39.2 °F 81% 29.74 in 10.0 mi North 21.9 mph - N/A   Overcast
1:56 PM 45.0 °F 36.6 °F 39.0 °F 80% 29.77 in 10.0 mi NNE 21.9 mph 26.5 mph N/A   Overcast
2:07 PM 46.4 °F 38.5 °F 39.2 °F 76% 29.75 in 10.0 mi NNE 21.9 mph - N/A   Overcast
2:56 PM 44.1 °F 35.7 °F 37.9 °F 79% 29.80 in 10.0 mi NNE 20.7 mph 28.8 mph N/A   Overcast
3:56 PM 44.1 °F 35.9 °F 37.9 °F 79% 29.84 in 10.0 mi North 19.6 mph - N/A   Overcast
4:56 PM 43.0 °F 35.4 °F 37.0 °F 80% 29.87 in 10.0 mi NNE 16.1 mph - N/A   Overcast
5:56 PM 42.1 °F 33.3 °F 37.9 °F 85% 29.90 in 9.0 mi North 19.6 mph - N/A   Overcast
6:06 PM 41.0 °F 30.7 °F 37.4 °F 87% 29.87 in 9.0 mi NNE 25.3 mph 29.9 mph 0.00 in Rain Light Rain
6:44 PM 39.2 °F 29.8 °F 37.4 °F 93% 29.90 in 7.0 mi North 18.4 mph 26.5 mph 0.00 in Rain Light Rain
6:56 PM 39.9 °F 30.0 °F 36.0 °F 86% 29.94 in 10.0 mi NNE 21.9 mph 26.5 mph 0.00 in Rain Light Rain
7:56 PM 39.9 °F 30.0 °F 35.1 °F 83% 29.97 in 10.0 mi NNE 21.9 mph 27.6 mph 0.00 in   Overcast
8:56 PM 39.9 °F 30.5 °F 35.1 °F 83% 30.01 in 10.0 mi North 19.6 mph 26.5 mph N/A   Overcast
9:56 PM 39.0 °F 29.9 °F 35.1 °F 86% 30.03 in 10.0 mi North 17.3 mph - 0.00 in Rain Light Rain
10:56 PM 39.9 °F 31.4 °F 35.1 °F 83% 30.07 in 10.0 mi North 16.1 mph - 0.00 in   Overcast
11:56 PM 39.9 °F 32.5 °F 35.1 °F 83% 30.08 in 10.0 mi North 12.7 mph - N/A   Overcast